• In Deutschland
  • Länderverzeichnis
  • Für 7 Tage
  • Wassertemperatur
  • Satellitenkarten
  • Wetterkarte
  • Widgets
  • user-avatar
    Anmelden

    Stündliche Wetter Dzierżoniów

    Heute, 23 Oktober, Montag

    Zeit Temperatur Niederschläge Wind Luftdruck Luftfeuchtigkeit
    00:00 +8°C° 0 mm 1 m/S 736 mmHg 84%
    01:00 +8°C° 0 mm 1 m/S 736 mmHg 85%
    02:00 +8°C° 0 mm 1 m/S 736 mmHg 86%
    03:00 +8°C° 0 mm 1 m/S 736 mmHg 86%
    04:00 +7°C° 0 mm 2 m/S 736 mmHg 87%
    05:00 +7°C° 0 mm 2 m/S 736 mmHg 88%
    06:00 +7°C° 0 mm 2 m/S 736 mmHg 89%
    07:00 +7°C° 0 mm 2 m/S 736 mmHg 90%
    08:00 +7°C° 0,1 mm 2 m/S 736 mmHg 89%
    09:00 +8°C° 0,1 mm 3 m/S 736 mmHg 89%
    10:00 +7°C° 0,1 mm 4 m/S 737 mmHg 88%
    11:00 +8°C° 0,2 mm 4 m/S 737 mmHg 87%
    12:00 +8°C° 0,2 mm 4 m/S 737 mmHg 87%
    13:00 +8°C° 0,2 mm 5 m/S 737 mmHg 86%
    14:00 +8°C° 0,1 mm 5 m/S 737 mmHg 85%
    15:00 +8°C° 0,1 mm 5 m/S 738 mmHg 85%
    16:00 +8°C° 0,1 mm 4 m/S 738 mmHg 84%
    17:00 +7°C° 0,1 mm 4 m/S 738 mmHg 86%
    18:00 +7°C° 0,1 mm 4 m/S 739 mmHg 89%
    19:00 +7°C° 0,1 mm 4 m/S 739 mmHg 91%
    20:00 +8°C° 0 mm 3 m/S 739 mmHg 91%
    21:00 +8°C° 0 mm 3 m/S 740 mmHg 91%
    22:00 +7°C° 0 mm 3 m/S 740 mmHg 91%
    23:00 +7°C° 0 mm 3 m/S 741 mmHg 92%

    Morgen, 24 Oktober, Dienstag

    Zeit Temperatur Niederschläge Wind Luftdruck Luftfeuchtigkeit
    00:00 +7°C° 0 mm 3 m/S 741 mmHg 94%
    01:00 +6°C° 0 mm 2 m/S 741 mmHg 95%
    02:00 +6°C° 0 mm 2 m/S 742 mmHg 95%
    03:00 +6°C° 0 mm 2 m/S 742 mmHg 95%
    04:00 +6°C° 0 mm 2 m/S 742 mmHg 96%
    05:00 +7°C° 0 mm 1 m/S 742 mmHg 95%
    06:00 +7°C° 0 mm 1 m/S 743 mmHg 95%
    07:00 +7°C° 0 mm 1 m/S 743 mmHg 94%
    08:00 +8°C° 0 mm 1 m/S 744 mmHg 90%
    09:00 +9°C° 0 mm 1 m/S 744 mmHg 85%
    10:00 +11°C° 0 mm 1 m/S 744 mmHg 80%
    11:00 +11°C° 0 mm 1 m/S 744 mmHg 78%
    12:00 +12°C° 0 mm 1 m/S 744 mmHg 76%
    13:00 +12°C° 0 mm 1 m/S 745 mmHg 74%
    14:00 +12°C° 0 mm 1 m/S 744 mmHg 76%
    15:00 +12°C° 0 mm 1 m/S 744 mmHg 78%
    16:00 +11°C° 0 mm 1 m/S 744 mmHg 80%
    17:00 +10°C° 0 mm 1 m/S 745 mmHg 83%
    18:00 +9°C° 0 mm 1 m/S 745 mmHg 86%
    19:00 +8°C° 0 mm 1 m/S 745 mmHg 89%
    20:00 +7°C° 0 mm 2 m/S 745 mmHg 90%
    21:00 +7°C° 0 mm 2 m/S 745 mmHg 90%
    22:00 +7°C° 0 mm 2 m/S 746 mmHg 90%
    23:00 +7°C° 0 mm 2 m/S 745 mmHg 90%

    übermorgen, 25 Oktober, Mittwoch

    Zeit Temperatur Niederschläge Wind Luftdruck Luftfeuchtigkeit
    00:00 +6°C° 0 mm 2 m/S 745 mmHg 90%
    01:00 +6°C° 0 mm 2 m/S 745 mmHg 90%
    02:00 +6°C° 0 mm 2 m/S 745 mmHg 90%
    03:00 +6°C° 0 mm 2 m/S 745 mmHg 90%
    04:00 +6°C° 0 mm 2 m/S 744 mmHg 90%
    05:00 +7°C° 0 mm 2 m/S 744 mmHg 90%
    06:00 +7°C° 0 mm 2 m/S 744 mmHg 90%
    07:00 +7°C° 0 mm 2 m/S 744 mmHg 90%
    08:00 +9°C° 0,1 mm 3 m/S 744 mmHg 87%
    09:00 +10°C° 0,1 mm 3 m/S 744 mmHg 84%
    10:00 +12°C° 0,1 mm 3 m/S 744 mmHg 82%
    11:00 +13°C° 0 mm 3 m/S 744 mmHg 80%
    12:00 +14°C° 0 mm 3 m/S 744 mmHg 78%
    13:00 +16°C° 0 mm 3 m/S 744 mmHg 76%
    14:00 +14°C° 0 mm 3 m/S 744 mmHg 78%
    15:00 +14°C° 0 mm 3 m/S 743 mmHg 80%
    16:00 +14°C° 0 mm 3 m/S 743 mmHg 83%
    17:00 +13°C° 0 mm 3 m/S 744 mmHg 85%
    18:00 +13°C° 0 mm 3 m/S 744 mmHg 87%
    19:00 +12°C° 0 mm 3 m/S 744 mmHg 89%
    20:00 +12°C° 0 mm 3 m/S 744 mmHg 90%
    21:00 +12°C° 0 mm 3 m/S 744 mmHg 91%
    22:00 +12°C° 0 mm 3 m/S 744 mmHg 92%
    23:00 +12°C° 0 mm 3 m/S 744 mmHg 92%

    26 Oktober, Donnerstag

    Zeit Temperatur Niederschläge Wind Luftdruck Luftfeuchtigkeit
    00:00 +12°C° 0 mm 2 m/S 744 mmHg 93%
    01:00 +12°C° 0 mm 2 m/S 744 mmHg 93%
    02:00 +12°C° 0 mm 2 m/S 744 mmHg 93%
    03:00 +12°C° 0 mm 2 m/S 744 mmHg 93%
    04:00 +12°C° 0 mm 2 m/S 744 mmHg 93%
    05:00 +10°C° 0 mm 2 m/S 744 mmHg 93%
    06:00 +10°C° 0 mm 2 m/S 744 mmHg 93%
    07:00 +10°C° 0 mm 2 m/S 744 mmHg 93%
    08:00 +11°C° 0 mm 3 m/S 744 mmHg 88%
    09:00 +13°C° 0 mm 3 m/S 744 mmHg 83%
    10:00 +14°C° 0 mm 3 m/S 744 mmHg 79%
    11:00 +14°C° 0 mm 4 m/S 744 mmHg 75%
    12:00 +15°C° 0 mm 4 m/S 743 mmHg 71%
    13:00 +17°C° 0 mm 4 m/S 743 mmHg 68%
    14:00 +15°C° 0 mm 4 m/S 743 mmHg 70%
    15:00 +16°C° 0 mm 3 m/S 742 mmHg 73%
    16:00 +15°C° 0 mm 2 m/S 742 mmHg 76%
    17:00 +15°C° 0,1 mm 2 m/S 742 mmHg 79%
    18:00 +14°C° 0,1 mm 2 m/S 742 mmHg 82%
    19:00 +13°C° 0,1 mm 2 m/S 742 mmHg 85%
    20:00 +12°C° 0,1 mm 3 m/S 741 mmHg 85%
    21:00 +12°C° 0,1 mm 3 m/S 741 mmHg 86%
    22:00 +12°C° 0,1 mm 3 m/S 741 mmHg 87%
    23:00 +12°C° 0 mm 3 m/S 741 mmHg 88%

    27 Oktober, Freitag

    Zeit Temperatur Niederschläge Wind Luftdruck Luftfeuchtigkeit
    00:00 +12°C° 0 mm 3 m/S 740 mmHg 89%
    01:00 +12°C° 0 mm 3 m/S 740 mmHg 90%
    02:00 +12°C° 0,3 mm 3 m/S 739 mmHg 90%
    03:00 +12°C° 0,3 mm 3 m/S 739 mmHg 90%
    04:00 +12°C° 0,3 mm 3 m/S 738 mmHg 91%
    05:00 +11°C° 0,5 mm 3 m/S 738 mmHg 91%
    06:00 +11°C° 0,5 mm 4 m/S 737 mmHg 91%
    07:00 +11°C° 0,5 mm 4 m/S 737 mmHg 91%
    08:00 +11°C° 0,5 mm 4 m/S 737 mmHg 89%
    09:00 +11°C° 0,5 mm 4 m/S 736 mmHg 87%
    10:00 +10°C° 0,5 mm 5 m/S 736 mmHg 86%
    11:00 +9°C° 0,5 mm 5 m/S 736 mmHg 84%
    12:00 +9°C° 0,5 mm 5 m/S 736 mmHg 81%
    13:00 +9°C° 0,5 mm 5 m/S 735 mmHg 79%
    14:00 +8°C° 0,3 mm 5 m/S 735 mmHg 80%
    15:00 +8°C° 0,3 mm 5 m/S 735 mmHg 81%
    16:00 +8°C° 0,3 mm 5 m/S 735 mmHg 81%
    17:00 +8°C° 0,1 mm 5 m/S 735 mmHg 82%
    18:00 +8°C° 0,1 mm 5 m/S 735 mmHg 83%
    19:00 +8°C° 0,1 mm 5 m/S 736 mmHg 83%
    20:00 +8°C° 0,1 mm 5 m/S 735 mmHg 84%
    21:00 +7°C° 0,1 mm 5 m/S 735 mmHg 85%
    22:00 +7°C° 0,1 mm 5 m/S 735 mmHg 85%
    23:00 +7°C° 0 mm 5 m/S 735 mmHg 85%

    28 Oktober, Samstag

    Zeit Temperatur Niederschläge Wind Luftdruck Luftfeuchtigkeit
    00:00 +7°C° 0 mm 5 m/S 735 mmHg 85%
    01:00 +7°C° 0 mm 5 m/S 734 mmHg 84%
    02:00 +6°C° 0,1 mm 5 m/S 734 mmHg 84%
    03:00 +6°C° 0,1 mm 5 m/S 733 mmHg 84%
    04:00 +6°C° 0,1 mm 5 m/S 732 mmHg 84%
    05:00 +6°C° 0,5 mm 5 m/S 732 mmHg 84%
    06:00 +5°C° 0,5 mm 6 m/S 731 mmHg 84%
    07:00 +5°C° 0,5 mm 6 m/S 731 mmHg 84%
    08:00 +7°C° 0,2 mm 6 m/S 730 mmHg 81%
    09:00 +7°C° 0,2 mm 6 m/S 730 mmHg 79%
    10:00 +6°C° 0,2 mm 7 m/S 730 mmHg 76%
    11:00 +8°C° 0,7 mm 7 m/S 729 mmHg 78%
    12:00 +8°C° 0,7 mm 6 m/S 729 mmHg 79%
    13:00 +8°C° 0,7 mm 6 m/S 728 mmHg 81%
    14:00 +8°C° 0,4 mm 6 m/S 728 mmHg 81%
    15:00 +8°C° 0,4 mm 5 m/S 728 mmHg 81%
    16:00 +8°C° 0,4 mm 5 m/S 728 mmHg 81%
    17:00 +7°C° 0,1 mm 5 m/S 729 mmHg 83%
    18:00 +6°C° 0,1 mm 4 m/S 729 mmHg 85%
    19:00 +5°C° 0,1 mm 4 m/S 730 mmHg 87%
    20:00 +5°C° 0 mm 4 m/S 730 mmHg 89%
    21:00 +5°C° 0 mm 3 m/S 731 mmHg 90%
    22:00 +5°C° 0 mm 3 m/S 732 mmHg 92%
    23:00 +5°C° 0,1 mm 4 m/S 733 mmHg 92%

    29 Oktober, Sonntag

    Zeit Temperatur Niederschläge Wind Luftdruck Luftfeuchtigkeit
    00:00 +6°C° 0,1 mm 4 m/S 733 mmHg 92%
    01:00 +6°C° 0,1 mm 5 m/S 734 mmHg 91%
    02:00 +6°C° 0,1 mm 5 m/S 734 mmHg 91%
    03:00 +6°C° 0,1 mm 5 m/S 735 mmHg 90%
    04:00 +6°C° 0,1 mm 5 m/S 735 mmHg 90%
    05:00 +6°C° 0,1 mm 5 m/S 736 mmHg 89%
    06:00 +5°C° 0,1 mm 4 m/S 736 mmHg 89%
    07:00 +5°C° 0,1 mm 4 m/S 737 mmHg 89%
    08:00 +6°C° 0 mm 5 m/S 737 mmHg 85%
    09:00 +6°C° 0 mm 5 m/S 737 mmHg 81%
    10:00 +7°C° 0 mm 6 m/S 738 mmHg 77%
    11:00 +8°C° 0 mm 6 m/S 737 mmHg 75%
    12:00 +8°C° 0 mm 6 m/S 737 mmHg 72%
    13:00 +9°C° 0 mm 6 m/S 737 mmHg 69%
    14:00 +8°C° 0 mm 5 m/S 736 mmHg 72%
    15:00 +8°C° 0 mm 5 m/S 736 mmHg 74%
    16:00 +8°C° 0 mm 5 m/S 735 mmHg 76%
    17:00 +8°C° 0 mm 5 m/S 735 mmHg 78%
    18:00 +8°C° 0 mm 5 m/S 735 mmHg 80%
    19:00 +8°C° 0 mm 5 m/S 734 mmHg 82%
    20:00 +8°C° 0,1 mm 6 m/S 734 mmHg 82%
    21:00 +8°C° 0,1 mm 6 m/S 734 mmHg 81%
    22:00 +8°C° 0,1 mm 6 m/S 733 mmHg 81%
    23:00 +8°C° 0 mm 6 m/S 733 mmHg 81%
    Mehr zeigen